Wind_Speed
7 7 7 6 7 7 7 7 7 7 7 8 9 10 10 10 10 11 11 11 12 13 14 15 15 16 17 17 17 18 19 20 21 17 12 17 18 14 13 12 11 11 10 10 10 9 7 5 2 3 4 3 0 1 1 1 2 2 2 4 7 3 3 4 4 5 3 2 5 6 2 2 5 6 4 6 4 4 8 7 5 6 6 8 10 11 9 7
7 7 7 7 7 7 7 8 7 7 7 8 9 9 10 10 11 11 11 12 13 13 14 14 15 16 17 17 17 17 18 20 19 17 19 18 12 10 9 7 7 7 7 8 9 7 5 4 2 5 4 1 1 0 1 1 2 3 3 4 7 3 3 5 5 5 4 5 6 6 5 2 5 5 3 5 9 8 10 9 6 7 9 12 15 16 14 10
8 8 8 8 8 8 7 7 7 7 7 8 9 10 11 11 11 11 11 12 12 13 13 14 14 15 16 16 15 15 16 15 12 14 13 5 3 6 6 6 6 6 7 6 6 5 7 6 5 6 3 1 2 0 1 1 2 3 3 5 6 4 4 4 5 6 6 6 7 8 8 6 5 3 1 5 10 11 11 9 7 9 9 11 15 12 9 8
8 8 9 9 9 8 8 8 7 7 7 8 9 10 10 11 11 11 11 12 12 12 13 13 14 14 15 14 12 13 12 9 6 6 2 2 2 4 3 4 5 5 6 5 3 3 6 4 4 4 3 1 3 1 2 3 2 1 3 5 4 4 4 6 7 7 7 7 7 7 9 11 7 4 5 6 9 12 11 10 10 13 12 12 16 9 4 7
9 9 10 11 10 8 8 9 8 7 7 8 9 9 10 11 11 12 12 12 12 12 12 13 14 14 14 12 11 11 8 4 3 2 4 1 3 4 4 4 4 5 5 3 1 1 3 4 4 3 2 2 2 1 3 5 3 1 4 5 5 4 4 7 7 8 8 7 7 7 9 11 7 6 7 8 11 11 9 11 11 13 12 12 13 8 4 6
11 11 11 11 11 10 10 10 10 8 7 8 9 9 10 10 11 11 12 12 12 12 13 13 14 14 13 11 9 7 2 1 3 2 2 4 5 6 5 5 5 5 4 3 2 2 2 3 3 1 1 1 3 3 5 4 3 3 5 3 5 6 5 6 5 8 7 6 8 7 6 6 6 9 7 9 15 11 11 15 14 12 12 12 12 8 6 10
12 13 12 12 12 12 11 11 10 9 8 8 8 9 10 10 10 11 11 12 12 12 13 13 13 13 11 9 6 4 2 5 14 13 12 10 9 9 6 6 4 3 4 3 4 3 1 1 2 4 3 2 3 4 5 3 2 4 5 5 7 8 7 6 7 9 7 8 10 6 6 8 10 11 7 12 15 12 14 17 16 13 10 12 12 11 10 13
12 13 14 14 14 15 14 13 11 10 9 8 8 9 9 10 10 10 11 11 11 12 12 12 12 11 9 7 4 4 3 12 22 19 14 11 9 8 7 6 3 2 3 4 4 4 3 3 4 2 1 3 3 3 3 1 1 4 6 6 6 7 7 8 9 9 9 9 8 9 9 13 16 10 11 20 17 13 16 17 16 12 10 12 12 13 12 14
12 12 13 14 16 17 16 14 12 11 10 9 9 8 9 10 10 10 10 11 11 11 11 11 11 8 5 4 2 4 6 10 13 9 6 6 6 7 7 5 3 2 3 3 4 6 4 3 5 3 3 4 3 3 1 1 3 4 6 6 5 8 8 8 8 8 10 7 6 10 13 16 14 8 14 20 16 17 18 17 15 12 14 15 13 15 15 16
13 13 13 14 16 16 15 14 12 11 11 10 9 9 9 9 10 10 10 10 10 10 10 10 8 5 3 2 1 5 6 4 4 2 2 2 5 7 7 6 4 4 3 3 4 6 5 4 5 3 3 2 2 3 1 2 2 2 4 5 6 10 9 7 8 10 10 6 7 10 14 18 10 5 11 9 9 14 11 12 14 12 15 14 13 14 14 16
14 14 14 15 16 15 14 13 12 12 12 11 11 10 9 9 10 10 10 10 10 9 9 8 7 4 3 1 3 6 4 2 3 2 2 2 5 7 7 6 4 4 4 3 4 5 5 5 3 1 1 2 2 2 2 3 1 1 3 7 9 9 8 8 9 11 6 4 10 10 14 17 7 8 12 9 10 10 7 15 19 15 14 14 15 14 13 15
14 14 15 16 16 15 14 13 12 11 11 12 12 11 10 10 9 10 10 10 9 9 8 7 5 4 2 1 7 14 10 6 5 3 3 4 6 8 6 5 4 4 4 2 2 3 4 5 3 2 2 1 1 2 3 3 1 2 1 5 11 8 8 10 9 9 4 5 7 3 9 12 7 14 17 16 16 11 11 20 21 16 15 15 15 13 12 14
13 14 15 16 16 15 14 14 12 11 11 12 12 12 11 10 10 10 10 9 9 9 8 6 5 4 1 1 9 15 16 16 15 13 11 9 8 8 6 5 4 3 3 3 1 0 2 4 5 4 3 2 2 3 1 1 2 4 1 1 7 7 8 8 4 2 2 5 4 5 6 6 6 16 17 15 13 10 13 18 16 14 13 13 13 10 12 14
12 14 16 16 16 16 15 14 12 11 11 12 12 12 12 11 11 10 8 9 8 8 7 5 5 4 2 6 9 10 15 19 20 20 16 12 10 7 5 4 3 1 1 1 2 0 1 3 4 2 1 2 2 4 3 3 2 4 3 1 2 3 6 6 3 1 2 5 5 7 7 5 8 15 14 11 9 9 11 14 14 12 12 12 11 10 13 14
13 13 14 14 14 15 13 12 11 11 11 12 12 13 13 12 11 9 8 7 5 4 5 4 6 3 0 8 11 10 12 13 15 17 14 12 12 6 4 4 2 1 1 1 1 2 2 3 3 1 2 1 1 2 4 4 2 2 2 4 2 3 6 8 7 4 6 6 4 7 5 7 13 15 11 9 6 7 9 13 13 11 12 12 10 10 12 12
13 13 13 12 13 13 12 10 11 11 11 12 13 14 13 13 11 8 6 4 2 2 2 3 6 4 1 6 4 4 7 6 7 9 10 12 13 7 3 5 3 3 2 3 3 4 4 4 2 1 1 1 2 2 2 4 4 1 2 6 5 4 5 7 7 5 6 4 0 6 4 7 12 10 9 8 6 8 10 13 13 13 13 11 10 9 10 11
15 13 12 12 12 12 11 11 11 11 11 12 13 15 14 13 10 7 4 2 1 2 5 3 4 4 4 5 2 4 5 5 4 4 10 11 11 8 5 4 3 4 5 5 5 4 3 2 1 1 1 1 2 4 2 3 5 2 1 4 5 5 4 5 7 5 1 3 3 4 4 12 18 13 13 12 11 13 14 15 15 14 13 11 10 10 11 11
16 14 13 12 12 12 11 11 11 11 11 11 13 14 13 10 7 4 3 6 6 5 4 3 3 2 5 5 3 4 1 3 4 5 9 9 7 8 5 3 4 5 5 5 3 3 2 1 2 1 2 1 2 4 3 5 4 3 2 3 4 4 5 6 7 5 3 1 6 6 7 17 22 16 14 14 12 13 15 15 15 15 14 12 10 10 12 12
15 14 13 12 11 10 10 10 10 10 10 11 10 6 2 1 2 2 5 7 6 4 3 4 6 3 3 3 2 1 2 5 5 5 7 7 6 7 5 4 5 6 4 2 1 1 1 2 3 0 2 3 5 6 9 5 1 3 4 3 4 5 6 8 9 6 2 5 10 10 11 17 19 16 15 15 11 10 14 15 14 14 12 10 10 11 12 13
15 14 14 13 12 11 10 10 9 9 9 9 9 3 2 2 1 0 3 7 6 4 2 5 10 4 2 1 0 2 3 4 3 4 7 8 8 7 3 3 5 4 2 3 2 1 3 2 2 5 7 8 9 9 9 3 3 1 1 2 5 6 8 9 10 8 2 3 10 10 12 15 16 18 18 17 13 10 14 15 14 14 11 9 11 13 13 14
15 14 14 13 13 13 11 10 9 9 7 8 7 2 1 2 2 1 2 6 11 10 7 7 10 8 4 1 1 3 2 1 1 3 8 9 8 6 1 1 4 1 2 4 2 1 2 3 7 10 10 8 8 8 7 5 4 4 3 5 6 6 10 12 10 9 2 4 8 8 9 14 17 19 19 17 13 13 14 13 15 15 11 10 12 14 14 12
16 15 12 11 12 12 11 10 10 8 7 7 6 3 3 2 3 2 2 4 9 13 14 10 7 10 7 3 3 2 1 1 1 1 8 8 5 4 2 3 4 3 2 2 2 1 1 4 11 11 7 5 5 6 6 6 7 6 4 4 6 4 7 10 7 5 1 3 7 9 9 14 19 19 19 16 12 13 13 12 13 14 10 9 10 11 11 11
17 14 11 10 10 10 10 10 9 9 9 8 7 5 4 4 3 7 1 3 7 6 10 10 8 9 7 5 5 5 2 4 3 4 10 10 3 4 4 3 4 2 1 3 4 3 3 6 10 6 6 7 3 3 5 4 4 5 4 3 6 5 3 6 4 4 4 3 7 10 9 12 15 13 13 13 10 10 11 10 11 10 10 10 9 9 9 10
16 15 14 12 11 10 9 10 10 10 11 11 13 12 7 5 4 7 1 2 6 4 4 8 7 6 6 5 8 10 4 3 3 4 10 12 4 3 4 4 4 2 3 6 6 5 7 7 2 4 7 8 4 2 5 4 3 4 6 6 7 8 6 8 6 7 8 5 3 7 8 8 7 7 10 9 6 7 8 8 9 9 9 9 8 9 9 10
17 16 15 12 11 10 7 7 10 11 10 9 14 15 10 8 8 3 1 2 4 5 3 4 3 3 6 5 9 10 3 3 4 4 9 12 7 4 2 3 3 4 6 5 5 6 10 7 3 3 3 6 5 4 5 6 3 4 6 11 12 10 9 9 8 7 6 5 3 5 7 7 5 7 11 8 4 7 7 6 9 10 8 7 8 9 9 9
19 17 14 13 11 9 5 5 7 9 8 8 7 6 8 9 7 5 2 4 3 5 0 2 1 4 5 4 5 6 4 3 4 2 7 9 6 4 2 2 0 4 5 4 3 4 5 2 3 4 4 6 5 5 5 7 3 4 4 9 11 9 7 7 6 3 2 6 4 4 1 6 9 11 9 4 6 12 10 6 8 9 7 6 7 8 7 7
21 19 16 14 12 10 6 2 4 7 4 5 6 4 5 6 5 6 1 4 4 3 3 1 1 4 5 1 3 6 3 3 1 3 3 5 3 2 2 4 1 2 3 3 2 3 2 1 2 2 4 5 4 5 5 7 5 4 3 3 5 5 5 5 3 2 3 5 5 2 4 3 8 10 6 2 8 15 13 8 6 6 6 5 6 6 6 7
23 21 18 15 15 14 10 4 3 5 2 3 6 3 4 5 6 4 4 2 4 1 3 1 1 3 1 1 3 4 2 2 3 0 1 2 2 1 2 6 6 4 3 4 4 4 2 2 3 4 3 3 4 4 7 9 5 5 2 2 2 4 4 4 3 3 2 3 5 2 4 1 6 9 6 4 7 12 11 9 7 7 6 6 5 5 4 5
24 23 20 18 15 15 16 11 6 6 5 6 4 2 4 5 4 3 4 2 3 1 2 1 2 1 2 2 1 2 1 2 2 2 3 2 2 2 2 5 7 4 2 4 6 5 0 2 5 6 3 5 5 3 5 9 6 3 2 2 1 2 1 1 2 2 1 2 6 4 3 2 6 9 7 3 2 7 7 6 7 6 6 6 6 6 5 4
25 23 19 18 16 16 16 16 17 13 9 8 3 3 3 4 3 4 2 5 2 1 1 2 2 1 4 5 1 2 0 2 1 1 3 1 1 4 0 1 5 3 2 2 5 6 3 2 1 3 4 5 4 2 2 5 4 0 3 2 3 3 2 2 1 1 1 3 6 4 2 2 3 7 5 3 3 4 3 5 7 7 8 7 7 6 5 5
26 23 21 20 19 18 13 10 19 18 12 10 4 2 3 2 4 4 6 6 1 1 2 2 1 2 6 6 1 1 1 1 1 2 2 1 2 3 1 0 3 2 2 4 5 5 4 2 2 2 2 4 4 3 0 0 2 2 3 3 4 4 3 3 3 2 0 5 4 3 2 3 4 7 5 5 6 5 3 6 8 9 9 8 7 6 5 5
27 24 23 23 22 20 14 6 11 15 14 11 4 2 4 2 1 5 5 5 2 2 3 3 2 3 6 3 2 3 3 1 1 3 4 3 3 3 3 4 3 2 2 5 3 4 4 5 3 1 1 4 5 2 2 3 4 4 2 3 3 4 3 3 3 1 3 5 3 2 2 2 6 10 11 14 16 12 7 8 9 10 9 8 8 7 5 5
29 26 23 25 25 22 18 10 6 11 13 11 5 4 6 2 5 6 5 3 1 2 2 4 2 4 6 3 2 4 2 2 3 2 2 3 3 4 5 4 4 2 1 3 1 2 4 4 0 2 1 2 6 5 2 1 2 4 4 3 2 0 2 3 3 2 3 4 3 3 2 3 5 8 11 14 16 13 8 7 9 9 10 9 8 7 6 6
30 27 24 26 26 23 20 15 10 9 10 10 5 4 4 5 5 6 8 6 1 1 2 4 4 4 4 3 3 4 2 3 4 4 2 2 2 4 5 6 5 2 2 2 1 2 2 5 2 3 1 1 4 5 4 5 3 3 5 4 4 4 3 3 3 2 4 4 4 3 1 3 3 4 7 10 11 10 7 8 8 8 9 7 6 7 7 8
30 29 26 25 26 25 20 16 14 9 7 8 4 3 7 9 3 4 7 5 1 1 2 2 4 4 2 3 3 4 3 3 3 5 3 3 3 4 4 6 7 5 3 2 2 2 2 5 4 1 1 1 1 3 2 6 3 2 3 5 2 5 4 2 3 3 2 4 4 2 3 5 4 9 14 12 11 10 8 7 7 8 8 5 7 8 7 8
31 30 26 24 26 26 21 18 16 12 7 6 5 6 10 7 4 5 5 4 4 5 5 2 3 4 3 2 2 4 2 1 3 3 3 3 3 5 4 5 8 11 8 5 3 2 2 4 4 2 1 1 1 3 1 1 2 1 3 3 4 4 5 2 2 1 2 2 4 1 4 5 4 9 12 8 8 9 7 7 6 8 7 5 7 7 6 7
31 26 20 20 25 26 23 20 18 13 7 4 8 10 7 4 5 6 4 4 4 6 8 3 3 4 4 2 3 5 3 1 3 3 3 3 3 6 6 4 6 14 14 7 2 2 3 3 3 2 1 2 1 1 2 2 2 3 2 4 3 2 4 3 1 4 3 2 5 2 5 5 1 4 8 8 9 10 8 7 7 8 5 4 7 6 6 7
25 18 12 17 27 28 24 22 19 11 3 4 12 12 4 4 6 4 4 4 4 5 5 4 5 5 5 4 3 4 5 3 4 4 3 3 4 4 6 4 6 13 15 9 3 3 3 2 4 1 2 3 3 2 0 3 3 3 2 2 2 3 1 2 1 1 0 3 5 4 6 5 4 4 6 8 11 11 10 9 8 8 7 6 7 7 7 7
18 9 5 15 28 28 27 25 16 7 4 7 13 11 3 4 5 3 5 4 4 4 5 5 4 3 3 5 3 4 6 6 6 5 3 3 4 4 6 5 4 8 12 11 6 2 2 2 4 1 2 2 3 1 3 1 2 2 1 3 2 2 3 3 2 3 3 2 3 5 6 4 6 6 5 9 10 8 9 9 8 8 8 7 6 6 7 6
13 3 3 19 32 31 30 23 11 6 6 6 9 7 3 2 4 5 6 4 2 2 4 5 5 4 3 4 3 3 5 5 6 5 3 4 4 4 6 5 3 3 5 8 5 1 1 2 3 3 3 0 2 3 5 6 4 2 1 1 1 0 1 0 1 2 4 3 1 2 6 8 6 5 7 10 9 7 7 7 8 9 8 8 6 5 6 6
8 3 3 24 39 36 28 15 5 6 5 5 6 4 3 2 3 6 7 5 3 1 2 4 6 5 5 4 3 4 5 4 6 5 3 5 4 4 5 7 7 6 6 4 4 3 3 3 3 2 1 3 5 4 3 5 5 5 5 5 5 4 3 1 3 1 3 3 4 2 5 11 6 4 7 8 6 7 6 6 8 8 8 8 7 4 5 6
7 3 6 30 45 38 22 7 4 5 5 7 6 2 3 3 2 5 6 5 3 2 0 2 4 4 5 4 4 5 6 4 6 6 4 6 8 6 4 5 10 10 8 4 3 3 3 3 2 3 4 5 6 3 1 3 2 3 4 4 5 4 4 4 4 3 2 2 2 4 2 10 5 4 5 4 4 6 5 5 6 8 8 8 8 7 5 5
6 2 10 37 50 36 15 4 5 6 7 4 1 1 2 2 3 4 5 5 4 3 2 2 3 5 5 4 4 6 6 4 6 7 5 5 7 7 4 9 11 9 5 3 2 2 2 3 2 4 4 2 4 3 1 1 2 2 4 3 5 5 3 4 4 3 3 3 3 3 3 10 6 3 5 5 4 5 5 5 6 7 8 8 8 9 7 6
5 2 5 30 47 33 11 7 10 10 10 5 3 5 3 2 5 6 6 7 4 4 5 5 4 5 5 4 5 7 7 5 6 8 5 4 5 4 6 12 13 8 4 3 4 5 4 3 3 1 4 5 5 4 2 3 1 3 4 4 6 7 4 3 1 1 1 5 7 5 6 12 5 2 3 4 3 5 6 5 5 5 6 8 8 8 7 7
4 2 2 14 28 20 7 5 6 8 12 11 9 9 6 5 5 6 8 7 4 4 5 4 4 4 4 4 4 6 8 7 5 5 4 4 4 2 3 11 12 8 4 2 4 6 5 4 5 5 4 6 4 3 4 3 2 2 4 5 8 11 10 5 2 3 4 6 6 6 10 15 9 6 9 8 6 9 10 5 4 6 6 7 8 8 8 8
4 3 2 5 8 8 5 2 2 4 9 11 8 8 11 11 5 3 7 7 6 6 3 2 2 4 5 6 6 5 7 7 5 4 4 5 4 2 2 7 8 5 2 2 4 6 3 2 6 8 9 9 7 7 6 4 4 4 6 9 10 12 13 7 3 4 6 5 5 11 15 18 19 17 15 13 11 10 10 9 7 7 7 8 9 9 9 8
4 3 5 6 4 5 6 5 6 4 4 8 8 6 12 15 7 3 7 8 6 6 3 2 3 6 8 9 9 7 6 6 6 5 4 4 3 1 1 3 4 3 1 1 3 5 3 3 7 10 13 11 9 9 6 6 6 8 9 10 11 11 13 11 8 8 7 5 9 14 14 17 26 24 17 16 15 9 9 12 10 9 10 11 10 9 9 10
3 2 4 7 5 7 9 11 13 10 6 6 7 6 10 15 14 10 9 5 3 6 7 6 9 15 14 11 9 8 6 7 9 8 5 4 3 1 2 1 2 2 3 1 1 3 3 4 6 8 12 12 9 9 6 5 6 6 8 10 11 12 15 16 16 13 10 9 15 14 12 18 26 24 18 17 13 9 11 12 10 10 12 11 9 8 10 12
2 1 2 5 3 6 12 14 14 14 12 8 7 9 12 16 19 16 8 4 4 9 10 11 16 19 15 9 8 9 8 9 11 8 5 4 5 4 2 2 1 0 3 3 1 2 3 3 4 7 9 10 9 10 8 7 9 10 11 12 10 13 16 18 18 17 16 20 20 15 17 22 21 20 20 15 8 7 10 9 10 13 13 9 7 9 12 13
2 1 1 3 2 3 8 9 9 11 12 10 9 11 13 16 19 14 8 9 11 10 10 18 23 15 11 10 9 13 16 14 12 7 7 6 6 4 4 4 3 0 3 4 2 2 3 3 2 4 4 7 7 8 9 10 12 17 19 15 11 11 13 14 15 14 16 21 19 15 20 23 17 17 19 15 8 9 12 14 17 20 14 9 9 12 14 14
1 3 2 2 3 4 6 7 8 9 9 9 11 12 13 16 15 10 8 11 15 12 13 22 23 7 6 11 15 21 23 15 10 7 10 9 8 7 6 5 6 5 4 4 2 2 4 3 2 5 2 6 5 7 11 11 12 20 24 19 14 12 11 12 13 13 16 18 16 15 17 18 16 16 17 15 12 13 16 18 20 20 12 8 11 14 14 15
1 4 2 1 3 5 6 7 9 9 8 10 15 16 14 14 10 9 8 9 14 16 12 15 15 6 5 15 22 22 18 11 9 7 8 8 8 7 7 6 9 9 7 6 3 3 5 4 2 3 4 6 4 5 7 5 8 16 17 13 16 18 16 15 15 16 18 16 14 15 17 17 14 13 15 18 16 15 17 18 19 18 11 9 13 15 15 16
Wind_Direction
275 282 289 298 303 308 303 293 290 288 290 295 302 310 314 313 304 297 294 298 305 310 312 312 314 313 311 314 314 312 316 316 313 313 295 288 293 296 295 282 276 282 280 278 277 278 287 294 277 135 125 124 156 271 222 167 121 141 148 228 242 220 202 197 195 204 206 257 265 273 243 164 291 299 317 326 327 278 286 285 274 291 286 257 259 274 283 291
271 277 284 290 295 302 303 298 296 296 291 288 292 303 313 321 318 309 302 302 304 306 312 315 314 312 311 313 312 314 318 314 312 301 289 294 289 275 280 279 279 286 289 286 281 264 240 266 198 132 104 135 238 233 227 232 171 184 160 228 239 199 206 205 198 216 230 250 265 272 259 227 249 268 338 308 293 293 290 287 288 295 291 285 277 266 260 265
263 269 276 283 292 297 302 304 304 304 305 300 300 306 310 317 322 320 315 310 304 305 311 314 315 314 310 309 311 316 319 317 312 291 288 294 230 257 274 275 287 297 298 292 294 265 237 247 189 140 79 212 244 161 192 238 210 203 192 237 245 214 239 243 225 234 244 258 276 283 281 270 241 236 276 275 281 281 273 273 279 276 271 275 276 264 250 253
257 264 273 280 287 292 298 299 300 304 307 307 307 311 311 314 319 320 321 318 314 313 313 317 319 317 313 309 312 317 321 321 294 263 230 134 237 281 277 278 299 296 295 293 303 283 246 228 163 123 95 231 297 44 180 230 218 199 206 234 241 202 242 257 245 248 253 257 261 273 288 283 268 233 241 260 276 273 267 258 246 254 256 256 268 277 264 254
257 263 273 277 279 286 295 295 297 302 304 305 304 306 311 314 316 316 320 319 320 317 314 321 322 322 320 314 316 319 328 330 279 183 140 174 290 295 276 284 302 294 292 280 268 216 212 176 118 68 86 219 303 64 235 228 169 188 225 234 240 204 241 256 246 250 248 255 263 263 275 278 276 257 241 237 251 260 269 263 242 242 251 253 264 283 293 271
258 261 265 272 278 282 288 292 294 297 301 303 300 304 310 311 313 315 318 318 319 317 313 321 325 326 322 313 316 306 296 268 260 216 232 279 298 285 276 282 297 299 274 223 157 130 191 147 125 144 124 218 220 193 248 240 151 234 248 254 254 226 234 252 251 256 252 261 264 256 272 285 283 274 258 235 245 253 262 265 260 250 250 257 265 272 274 269
259 262 263 268 276 281 286 290 292 294 297 299 299 303 307 308 310 312 315 316 318 317 317 321 324 328 325 323 319 279 205 248 266 273 276 283 287 276 271 279 292 288 242 187 134 129 180 174 189 185 150 239 222 208 246 256 149 224 259 279 265 247 241 249 257 264 264 259 257 265 299 293 269 272 274 255 253 254 256 261 262 261 259 263 269 269 263 262
261 264 266 270 275 282 284 283 288 293 294 297 299 302 305 305 305 307 311 311 314 316 318 320 323 329 331 336 329 282 243 256 272 282 282 278 271 264 261 269 278 252 214 177 163 154 150 197 216 191 190 243 203 201 240 263 199 212 244 261 266 264 253 252 260 267 268 260 259 267 276 268 259 268 271 262 263 263 260 263 266 269 267 263 265 264 261 261
264 268 272 275 277 283 282 279 286 292 294 296 296 300 304 305 302 304 306 306 310 312 315 318 323 331 329 346 9 284 256 256 278 290 280 270 255 251 251 254 253 227 179 172 181 163 158 197 220 207 207 229 195 215 236 213 240 210 235 262 282 280 271 266 270 266 263 256 253 263 268 264 261 273 267 257 256 261 261 266 271 269 264 261 259 258 257 259
264 270 275 280 282 284 282 280 282 289 295 294 295 299 300 303 302 302 303 303 307 308 312 316 323 331 306 346 80 258 264 264 281 278 270 270 249 244 243 252 254 239 202 168 160 158 169 194 214 214 205 220 196 218 178 169 224 205 251 282 267 269 276 269 266 262 263 268 249 252 264 266 262 245 256 256 242 252 270 276 268 257 256 257 254 254 254 254
265 270 274 283 287 284 283 283 282 285 293 294 296 297 297 301 301 302 302 300 303 304 307 310 318 316 274 99 160 230 263 292 266 263 270 267 257 250 245 252 256 252 234 197 191 190 201 207 187 103 230 217 211 249 219 193 250 263 296 308 280 280 282 256 255 260 264 274 241 230 258 267 269 246 256 276 259 249 276 271 262 256 257 259 256 254 253 254
262 268 274 282 285 283 282 283 282 284 291 295 296 297 297 298 297 300 300 299 302 300 301 301 299 289 271 131 224 238 251 263 263 262 266 269 258 249 246 249 251 261 252 231 239 219 223 222 163 153 234 202 262 280 230 206 307 293 12 317 296 316 296 263 256 249 209 241 238 199 275 271 253 255 260 265 259 243 245 256 260 260 259 259 257 256 254 256
261 268 274 281 282 281 282 280 279 283 290 294 297 298 297 295 296 297 297 298 298 295 295 287 267 262 264 229 237 246 257 258 260 264 266 264 253 245 242 243 250 264 264 246 245 263 244 223 176 186 217 160 246 267 224 128 7 304 336 306 305 327 297 276 271 254 186 236 190 129 276 273 242 256 257 260 258 244 242 253 261 260 258 259 257 256 256 257
263 270 274 277 278 277 279 277 276 282 289 294 296 298 295 295 294 291 294 294 293 295 292 269 241 231 201 247 258 268 270 262 258 261 260 249 235 234 238 235 240 245 296 271 216 180 301 207 162 154 230 178 251 290 319 1 24 315 307 281 316 300 280 289 298 349 295 262 142 150 253 278 268 266 263 266 260 240 247 256 258 255 254 256 255 252 256 258
264 270 272 272 271 271 274 274 276 284 291 295 297 297 295 294 292 290 292 288 292 295 275 235 213 184 328 276 275 273 268 263 258 256 250 231 217 216 233 211 180 123 31 34 138 154 123 129 133 138 270 281 29 325 316 340 11 2 299 284 278 220 271 298 282 242 248 279 114 158 250 275 263 265 266 273 262 229 242 255 257 256 253 252 254 250 255 261
265 268 268 267 267 268 272 276 279 286 295 298 298 298 294 292 287 284 282 270 291 273 211 203 200 169 303 280 288 283 255 247 256 249 226 217 215 208 179 168 135 76 88 75 107 136 108 89 100 170 226 336 91 110 4 341 320 330 207 256 259 237 287 312 288 244 219 264 152 194 244 283 265 263 263 265 268 259 257 262 262 256 254 250 252 251 254 263
262 264 264 264 266 270 275 279 282 290 299 299 300 299 295 292 282 273 271 212 154 171 166 185 191 172 259 263 283 286 247 218 231 215 200 206 213 202 152 123 86 75 85 67 80 94 64 62 28 271 58 39 125 103 43 291 269 274 177 251 261 242 274 303 292 295 175 161 244 234 239 266 269 273 275 270 268 270 267 266 263 257 256 250 249 254 255 259
256 258 260 262 264 269 276 279 284 291 298 301 303 299 293 287 265 243 209 157 119 118 169 215 172 172 264 254 245 259 197 164 180 165 185 194 199 192 158 113 94 81 64 34 45 61 11 22 65 329 27 29 160 127 185 230 230 235 197 237 275 261 254 263 268 300 6 255 264 273 259 265 272 277 276 269 258 256 259 260 262 260 257 252 249 253 254 256
250 253 256 260 261 266 275 279 283 289 300 304 304 302 294 260 218 182 169 165 131 124 194 203 172 170 267 241 235 240 103 118 140 144 165 167 168 164 129 101 91 82 71 19 305 122 103 60 67 189 228 211 202 182 204 221 123 204 200 204 264 284 264 255 255 264 325 294 277 269 263 269 279 283 279 274 260 244 254 259 260 261 257 254 252 251 254 255
247 249 252 260 266 269 274 277 282 288 297 305 310 329 115 144 209 246 179 204 218 203 193 188 192 223 299 259 356 135 122 107 126 151 157 157 150 137 100 62 64 60 115 167 219 205 119 132 217 222 220 211 205 205 218 256 25 197 225 274 267 277 278 269 271 272 178 250 273 260 263 274 280 283 281 279 274 253 252 256 260 262 257 250 248 250 253 252
245 247 251 261 267 267 270 273 278 282 288 299 302 313 185 191 176 262 227 240 248 244 258 228 206 241 265 237 239 156 128 57 26 145 158 159 142 141 191 84 92 31 233 171 174 316 100 173 238 232 221 211 198 200 223 256 280 272 278 294 287 272 277 276 279 290 215 185 266 268 279 286 282 282 280 279 278 265 257 254 258 261 255 248 247 250 254 256
242 239 243 259 264 263 266 269 274 275 275 280 267 250 265 213 91 12 268 271 265 239 241 240 229 255 248 235 253 184 68 256 273 225 169 150 124 167 208 103 141 217 238 136 124 281 222 229 252 243 203 181 185 183 198 224 243 261 266 291 290 273 290 287 280 311 356 172 271 293 303 290 281 279 278 277 270 265 260 247 249 258 256 249 245 248 253 261
239 233 238 257 259 257 262 266 273 268 256 252 237 235 236 192 50 8 348 269 293 239 225 226 225 242 233 248 236 181 195 211 206 246 182 150 119 175 156 134 172 183 159 175 171 185 224 243 256 248 148 154 200 186 177 207 234 236 229 253 272 273 322 286 282 349 326 254 271 295 301 282 279 281 278 271 253 255 264 254 250 252 250 248 247 253 251 252
237 240 245 255 253 251 262 270 270 258 250 246 240 238 209 191 310 349 44 257 290 269 226 209 205 222 215 222 197 179 207 207 179 231 182 158 140 149 161 164 164 174 214 205 192 213 243 238 217 87 118 155 197 211 173 199 253 234 213 213 248 260 240 242 284 336 315 290 282 311 309 279 277 295 290 281 250 254 269 270 270 259 248 248 249 254 247 241
230 235 240 246 245 246 258 269 260 245 241 245 247 241 217 231 278 294 107 6 294 287 282 201 186 212 198 163 170 174 178 215 215 217 178 166 151 137 176 169 160 216 214 192 192 243 260 244 156 114 132 155 184 231 198 186 241 283 226 212 226 244 243 252 298 335 336 320 337 14 340 287 283 293 285 289 301 290 274 255 268 270 266 262 255 252 245 241
221 225 236 241 231 231 244 261 248 224 219 236 246 223 204 236 253 204 134 39 298 275 263 194 192 171 168 136 166 155 115 245 248 160 167 178 168 134 153 163 161 222 191 165 186 237 268 267 151 185 186 165 190 247 226 174 187 297 249 210 217 231 249 265 283 315 329 290 284 76 58 275 300 300 275 276 315 301 290 264 261 268 271 265 261 262 252 248
222 224 235 234 211 206 219 227 202 187 197 234 221 191 211 231 214 194 105 26 289 241 130 267 337 147 170 182 172 141 145 265 3 87 166 186 194 104 152 190 161 216 184 139 253 241 195 77 81 150 158 170 201 245 220 162 152 263 257 166 177 204 232 231 221 229 239 282 294 137 155 256 297 290 265 302 314 301 299 297 281 278 285 276 265 266 256 248
227 227 229 223 206 209 219 203 172 189 210 200 185 216 254 215 186 162 82 35 271 151 118 262 85 123 155 66 100 119 204 297 89 282 306 158 211 59 176 208 172 197 201 152 239 268 134 156 186 153 133 183 210 225 196 166 171 255 250 107 133 178 206 190 185 251 268 340 312 221 155 242 276 276 287 335 307 292 298 307 306 311 318 316 311 304 286 260
226 225 221 215 205 214 225 229 224 214 216 192 176 285 256 199 181 92 81 204 251 89 108 114 121 81 37 109 89 55 360 360 119 260 356 119 240 40 176 204 154 179 234 170 230 275 330 225 189 150 152 210 217 229 188 175 198 256 117 98 34 92 111 110 168 260 3 334 280 242 174 241 273 282 299 339 270 260 283 304 301 300 303 319 335 332 324 321
222 219 212 204 199 206 216 230 232 222 208 201 221 316 217 170 99 85 186 227 227 103 135 115 150 142 101 128 291 339 306 322 8 9 28 112 322 19 77 190 110 135 281 266 250 264 278 300 162 165 188 192 175 143 180 184 195 62 75 45 345 9 26 27 94 68 33 263 272 272 213 205 282 284 267 237 230 239 288 312 301 298 303 320 336 331 327 332
220 216 206 197 200 202 194 224 235 223 215 215 233 315 170 105 63 140 214 239 229 130 130 120 169 127 127 141 188 229 165 311 360 95 104 123 51 40 354 259 90 78 335 288 269 277 279 256 220 235 186 138 118 101 9 55 115 98 65 37 344 329 356 10 1 42 187 248 272 296 254 181 233 266 257 252 267 262 257 280 285 291 299 311 322 321 320 319
219 213 205 200 203 202 193 223 232 212 215 213 195 90 115 97 271 193 231 280 261 193 163 157 190 156 150 142 166 174 150 203 211 136 147 150 157 193 220 204 170 73 311 252 272 317 273 232 211 234 187 136 130 126 339 10 65 106 102 66 20 330 339 339 310 231 228 254 271 283 261 205 236 261 273 277 279 275 253 246 257 269 281 293 303 306 312 314
218 211 203 202 203 203 205 215 194 182 197 192 164 76 89 166 233 189 205 268 234 192 135 119 109 133 144 140 208 185 148 202 196 156 161 136 165 228 257 230 180 118 204 210 257 330 295 294 219 158 258 167 158 177 223 248 116 138 152 136 135 192 312 282 273 285 277 270 277 281 267 262 269 267 259 259 268 277 275 255 248 255 266 272 282 295 305 302
216 207 201 203 204 206 209 209 193 174 179 175 150 78 114 219 234 169 194 226 226 32 60 96 95 99 141 185 228 185 159 216 177 142 154 124 157 231 249 231 196 118 108 148 190 182 234 298 268 169 257 292 193 208 177 144 141 173 161 135 155 169 181 249 243 242 281 292 294 308 285 215 224 272 265 254 261 272 271 258 248 249 255 259 273 287 291 284
213 204 201 202 202 205 207 205 203 198 189 175 135 124 196 218 208 162 200 209 180 94 48 63 97 102 206 260 264 214 191 217 163 127 162 171 181 205 204 206 192 162 142 170 227 172 173 265 270 247 263 126 235 266 124 115 135 219 137 111 180 186 163 232 221 185 259 309 292 263 240 221 226 285 290 287 284 284 283 281 272 263 266 273 273 268 262 263
206 201 200 198 195 199 202 201 200 204 209 177 152 201 219 215 169 182 198 165 166 149 118 81 90 112 242 270 257 236 205 178 152 141 200 199 203 211 207 211 189 181 180 174 204 172 149 271 291 348 300 118 184 265 343 103 199 186 128 164 216 178 128 133 267 338 46 295 278 253 262 288 320 293 291 316 321 305 307 315 296 277 279 278 266 262 254 253
197 195 196 193 191 194 197 197 192 198 216 187 194 214 215 204 184 185 179 145 150 138 132 178 191 170 212 229 219 208 176 152 162 168 212 211 224 207 204 238 191 187 195 187 208 204 159 268 296 82 197 280 222 190 8 7 101 117 174 213 197 122 81 91 267 339 30 261 277 299 269 285 340 288 306 338 324 301 302 314 309 302 308 290 276 279 271 257
187 186 195 194 191 189 190 191 184 183 200 201 221 230 202 192 204 178 164 145 125 133 149 197 204 182 188 199 211 182 172 188 171 176 195 208 246 192 167 219 202 191 198 186 222 256 156 258 301 80 194 292 360 87 25 356 54 109 205 229 110 129 129 94 167 257 288 264 286 303 291 269 198 226 288 294 288 293 302 313 320 316 318 313 302 300 292 282
171 175 215 188 185 186 182 180 171 166 203 205 222 234 197 199 233 204 184 161 113 138 179 207 204 176 167 176 176 160 177 186 168 175 183 179 235 204 166 206 205 188 191 175 187 242 128 214 286 310 245 298 13 119 195 234 24 32 324 330 2 157 170 156 153 166 179 246 291 311 314 274 214 209 223 247 263 279 293 306 313 303 297 298 298 296 294 290
158 174 218 170 178 182 173 165 156 181 211 208 220 225 180 202 244 227 213 197 153 166 189 205 199 187 172 167 169 172 183 187 170 179 207 192 223 240 202 194 148 130 161 166 182 205 112 206 254 299 313 180 199 213 192 185 170 149 213 247 277 220 132 164 202 140 140 163 215 307 304 275 241 194 204 232 250 249 260 284 291 292 295 295 292 284 284 284
152 202 195 167 172 169 157 153 174 193 211 238 238 221 167 184 223 226 227 214 219 237 140 174 193 189 174 172 198 186 170 180 179 187 224 206 213 247 215 173 144 128 113 134 205 208 181 188 189 242 271 197 228 251 214 201 182 168 191 193 187 175 121 116 262 265 107 147 178 161 288 281 264 190 213 233 242 243 246 255 273 289 292 293 296 282 269 278
165 216 164 163 166 160 150 166 206 184 218 231 225 200 174 189 207 230 229 203 215 258 104 180 194 183 178 178 188 177 165 176 189 195 220 209 208 227 218 145 143 144 128 133 207 188 147 122 145 232 229 212 244 277 230 212 169 165 205 191 176 177 146 155 219 240 141 151 157 114 270 278 261 192 223 244 238 250 255 243 267 294 294 296 308 310 300 277
175 180 153 162 164 158 149 191 195 202 231 225 222 252 210 205 203 221 219 197 196 202 207 227 194 195 210 185 161 176 183 190 187 190 210 219 222 227 183 141 143 143 132 140 175 157 128 123 165 275 294 305 312 320 348 37 85 186 233 188 177 203 191 168 187 184 157 174 153 111 249 262 255 195 223 234 232 255 275 256 256 289 305 307 307 308 314 304
159 98 143 168 168 162 161 196 193 208 220 214 232 233 253 267 204 200 210 209 201 177 197 225 210 212 218 178 165 184 190 197 198 197 199 200 224 228 161 155 159 163 176 178 164 170 185 172 157 251 321 329 337 340 321 326 309 213 232 204 200 205 163 107 129 147 194 212 175 150 246 254 259 13 267 253 276 283 274 241 225 257 296 305 303 302 305 307
146 99 20 178 175 173 188 199 186 210 213 213 222 218 228 253 216 200 209 213 209 182 194 231 215 195 186 169 177 190 195 213 220 206 193 191 233 269 176 181 182 177 190 201 162 165 179 188 161 155 214 241 259 248 236 245 194 202 231 212 207 201 180 161 161 173 225 238 182 175 242 256 269 287 272 268 280 281 276 263 247 256 268 283 292 294 295 300
173 156 109 177 189 205 227 201 172 220 211 209 220 215 214 227 241 212 204 218 224 200 198 286 193 171 178 186 198 207 213 229 230 208 193 196 227 283 180 196 199 186 171 159 158 148 128 216 194 188 211 219 223 231 212 146 142 191 214 207 202 202 194 182 148 172 207 227 216 219 240 263 272 265 264 268 267 271 284 290 285 277 272 270 269 274 284 288
204 185 160 167 184 221 233 230 213 217 205 196 199 199 207 218 236 222 201 213 212 192 218 269 190 197 203 191 201 220 213 212 221 216 197 184 205 320 60 188 217 224 121 106 163 139 103 245 216 209 226 228 229 237 209 161 193 209 206 208 203 197 195 193 202 205 190 202 241 236 233 257 266 263 262 269 270 276 282 278 276 272 267 264 263 272 283 281
216 202 183 185 185 196 207 215 210 209 216 203 200 208 208 211 218 217 207 199 168 182 210 227 215 219 216 190 194 219 205 204 221 215 184 159 156 110 66 125 221 202 141 101 281 138 151 234 211 206 237 242 243 253 235 208 233 225 209 212 202 193 193 200 214 213 190 213 243 242 226 238 255 263 263 263 270 276 269 267 270 266 260 261 268 276 273 269
213 331 223 214 216 196 202 209 204 203 212 210 211 220 214 211 215 215 196 156 196 206 203 223 230 225 218 195 190 214 209 208 224 215 165 158 167 151 157 190 212 216 162 171 238 149 179 240 195 194 241 252 245 256 259 253 264 260 241 225 205 201 200 202 214 215 214 231 242 247 249 247 251 262 265 265 268 260 261 271 273 264 259 257 263 263 258 258
212 319 231 211 229 194 202 209 192 197 211 209 215 225 222 222 222 214 191 184 207 203 189 221 232 219 200 200 204 228 228 217 223 212 157 171 192 179 205 198 152 140 193 176 191 203 207 247 153 153 245 259 235 245 258 253 258 262 255 238 213 209 211 213 220 216 222 240 246 250 258 260 258 261 266 273 276 264 269 275 270 266 259 243 241 249 253 257
301 314 300 232 220 182 185 194 180 193 210 203 216 226 226 231 224 209 212 213 214 208 193 216 227 201 158 200 212 231 235 226 227 205 165 181 198 189 212 205 159 164 185 174 162 161 191 243 54 88 259 256 208 218 247 257 269 269 262 248 222 213 212 214 216 210 215 234 245 248 253 257 259 264 272 274 266 262 265 262 264 269 260 226 235 247 250 252
358 304 301 253 235 193 183 187 181 196 208 202 215 220 220 228 212 189 221 231 221 223 214 214 219 188 181 216 219 228 234 230 234 215 179 200 211 195 207 201 175 171 165 166 169 135 163 190 111 130 226 265 258 235 250 283 291 274 261 231 211 216 220 219 221 217 214 221 234 239 242 247 255 268 277 274 264 257 258 255 258 267 261 231 235 245 249 251
Height
802 802 801 801 800 800 799 798 798 798 798 797 797 797 796 796 795 794 794 794 795 795 795 795 794 794 792 791 790 788 787 785 783 782 780 775 773 774 772 772 772 773 773 773 773 773 774 774 774 775 776 777 779 778 778 777 778 781 785 789 785 782 782 777 775 774 772 770 765 761 761 764 763 758 755 752 751 752 750 747 745 743 740 739 736 735 735 735
801 801 801 801 800 799 798 798 798 797 797 797 797 796 796 795 794 794 793 794 794 794 794 794 794 793 791 791 789 788 786 784 782 779 775 771 771 772 771 771 771 772 772 772 772 773 773 774 774 775 776 777 779 778 778 777 777 779 784 786 780 777 776 772 770 768 768 767 763 761 761 763 763 760 758 756 755 753 753 749 746 744 741 737 734 733 733 733
800 800 800 800 799 798 798 797 797 797 796 796 796 796 795 795 794 794 793 793 793 793 793 793 793 792 791 790 788 788 786 784 781 775 770 769 770 770 770 770 770 771 771 771 771 772 773 773 774 775 777 778 778 779 778 778 778 778 780 782 778 775 773 770 768 767 765 764 764 762 760 761 761 759 758 758 756 753 752 750 747 745 742 737 732 730 732 733
799 799 799 799 799 798 797 797 797 796 795 795 795 795 795 794 794 793 793 793 792 792 792 792 792 791 790 789 789 788 786 785 779 770 768 770 770 770 770 769 770 770 770 770 771 772 772 773 774 774 777 778 779 779 778 777 777 778 778 777 774 773 772 769 766 765 764 764 764 762 761 759 757 757 755 756 757 751 747 745 744 742 738 736 731 729 731 731
798 798 798 798 798 797 797 797 796 795 794 794 794 794 794 793 793 793 793 792 792 792 792 792 791 791 790 789 789 788 788 788 776 768 769 770 769 770 769 769 769 769 769 770 770 771 772 773 774 775 777 778 779 779 777 775 775 777 775 773 771 772 772 766 763 763 762 762 763 763 762 757 753 753 751 754 754 747 742 738 738 737 734 733 730 729 730 731
797 796 797 796 797 797 796 796 796 794 793 793 793 793 793 792 792 792 792 792 792 792 791 791 791 791 790 788 789 788 790 786 772 768 770 769 770 769 769 769 768 769 769 770 770 771 772 773 774 776 777 777 777 777 774 773 774 776 773 771 769 769 769 764 762 761 761 762 762 761 759 755 754 752 748 749 745 740 737 733 732 733 731 730 729 729 729 729
796 796 795 795 796 796 796 796 795 794 792 792 791 791 792 791 791 791 791 791 791 791 791 791 790 790 789 788 788 789 790 780 767 769 770 768 769 768 768 768 768 768 768 769 770 771 773 774 774 774 776 776 776 775 772 772 774 775 773 770 767 766 766 764 762 760 761 762 760 759 757 756 757 752 746 742 737 736 734 730 728 729 729 728 727 727 727 726
796 795 794 795 795 795 795 795 794 794 792 791 790 790 790 790 790 790 790 790 789 790 790 790 790 790 789 789 788 790 787 774 766 768 768 768 768 767 768 767 768 768 768 769 769 771 773 774 774 774 775 775 774 773 771 772 773 774 772 768 765 764 763 762 761 761 761 760 759 758 758 755 752 751 745 736 734 733 730 727 726 727 727 726 726 724 724 722
795 794 794 794 794 794 794 794 794 793 792 791 790 789 789 789 789 788 788 788 788 789 788 789 789 789 789 789 791 790 779 768 766 767 767 767 767 767 767 767 767 768 768 768 768 770 772 772 772 772 774 773 773 772 771 773 772 770 769 766 765 763 760 760 760 759 758 757 757 756 755 750 747 750 740 729 732 730 726 726 724 725 724 722 722 721 720 719
794 794 794 793 793 793 793 793 793 792 792 790 789 788 788 788 787 787 787 787 787 787 787 788 788 788 789 788 792 788 772 765 767 766 766 767 767 767 767 766 767 767 768 768 768 769 770 771 770 770 771 772 772 772 771 772 770 769 768 767 766 763 761 760 758 756 754 754 754 754 751 743 744 747 732 723 728 726 725 725 721 721 720 717 718 716 715 714
793 793 793 792 792 792 792 792 791 791 791 790 789 787 786 786 786 786 786 786 786 786 786 787 787 787 787 788 790 782 767 766 767 766 767 767 767 767 766 766 766 766 767 767 768 768 768 769 769 770 771 772 772 772 771 769 769 768 768 766 763 763 762 759 757 754 754 753 747 748 747 741 744 742 728 724 725 723 725 721 715 716 714 713 712 711 710 708
792 792 792 792 791 791 791 791 790 790 790 790 789 787 786 785 784 784 784 785 785 785 785 785 787 786 786 788 784 771 765 767 766 766 767 766 767 767 766 766 765 766 766 767 768 767 768 768 769 771 771 772 773 772 769 768 769 767 768 767 762 762 759 753 752 750 752 749 741 746 746 739 741 733 722 721 718 720 722 714 710 711 710 708 707 706 706 702
791 791 791 791 791 790 790 790 789 789 789 789 788 787 786 784 783 783 783 784 784 785 785 785 785 785 787 784 772 763 764 765 765 765 766 766 767 766 766 765 764 765 766 766 767 767 768 768 768 770 770 771 772 770 767 767 768 766 767 769 767 766 758 749 749 748 749 745 738 746 746 733 730 723 715 715 713 716 717 711 709 708 707 705 703 703 701 697
790 789 790 790 790 789 789 789 788 788 788 788 787 786 785 783 783 781 781 782 782 784 784 784 785 785 786 776 763 762 763 763 763 763 764 765 765 765 765 765 764 765 765 766 767 767 767 767 769 770 770 771 770 768 768 768 768 767 768 770 772 771 758 747 748 748 748 742 738 745 745 734 725 717 712 711 712 714 713 709 707 705 704 701 699 699 696 692
788 788 788 788 788 788 788 787 787 787 787 786 786 785 784 783 781 780 780 780 781 783 783 784 784 784 786 773 761 761 760 760 761 761 763 764 764 765 764 764 765 765 765 766 766 766 767 767 769 771 771 770 770 770 772 771 769 770 772 770 771 770 759 748 745 745 743 740 741 744 744 737 723 713 710 710 711 712 711 706 703 702 700 698 696 696 693 689
787 787 787 787 787 787 787 787 786 786 785 785 785 784 783 781 781 780 779 778 780 781 783 785 783 785 784 770 760 760 758 758 759 759 761 762 763 764 764 765 765 765 766 766 766 766 767 768 771 773 772 770 771 772 774 775 772 772 773 769 767 766 762 753 742 740 741 740 742 742 741 733 717 708 707 708 709 709 708 704 701 699 696 695 694 692 690 686
786 786 786 786 786 785 786 786 786 785 784 784 783 782 782 781 780 779 778 778 778 779 782 783 783 785 777 762 759 759 756 756 757 758 760 762 763 764 764 765 765 765 766 766 766 767 768 770 773 773 772 774 774 773 776 779 772 770 773 770 767 765 764 757 743 738 742 743 740 740 742 731 712 706 707 706 706 706 704 700 696 694 691 690 689 687 685 682
785 785 785 785 784 784 784 784 785 784 783 783 782 781 780 780 779 779 778 777 778 781 783 782 784 784 768 757 759 757 755 756 756 757 759 761 763 763 764 765 765 765 766 768 768 769 770 772 775 773 773 776 773 772 776 773 765 765 769 768 764 763 763 760 750 741 740 742 740 742 741 726 710 707 707 703 703 703 700 695 691 688 685 684 684 682 679 677
783 783 783 783 784 784 783 783 783 783 783 782 780 779 779 780 780 779 777 777 776 776 774 774 775 771 759 755 757 756 755 756 755 757 759 761 763 763 764 764 765 765 768 770 769 770 771 772 775 773 770 772 770 769 767 763 761 763 765 766 763 762 759 756 750 742 742 743 739 739 736 722 711 707 703 697 697 698 694 690 687 682 680 680 680 677 674 673
781 781 782 782 782 783 783 783 782 782 782 781 780 779 779 779 776 775 778 776 769 763 762 764 763 759 755 755 756 755 756 756 756 757 758 759 761 763 765 765 766 768 770 770 769 771 772 771 771 767 763 764 766 766 764 763 765 766 767 766 765 766 760 750 745 741 743 744 735 731 730 723 714 706 698 692 691 693 689 686 682 677 676 676 674 672 669 667
779 780 780 780 781 782 782 782 781 781 781 781 780 779 778 776 771 771 777 771 762 760 759 759 759 756 754 755 755 756 756 756 756 756 757 758 760 763 765 766 767 769 770 771 771 772 772 770 764 758 758 760 763 764 765 766 766 766 768 767 766 767 757 745 743 740 742 745 733 726 728 722 712 701 691 687 687 685 681 680 676 671 671 671 668 667 664 662
778 778 778 779 779 780 781 781 781 780 781 780 780 779 777 776 773 773 776 768 759 758 758 758 760 757 753 754 755 755 756 756 757 757 757 757 759 763 764 766 767 767 770 772 771 772 774 767 755 753 759 762 764 765 766 767 767 767 770 772 768 762 753 744 740 740 744 744 731 725 730 719 704 696 687 683 682 677 672 672 669 666 666 666 663 662 661 660
776 776 777 777 778 779 779 780 780 780 779 778 778 777 775 774 774 774 775 769 759 753 754 756 756 754 753 754 754 755 757 756 756 755 755 756 758 762 763 766 767 766 769 770 768 770 769 760 753 755 760 761 764 766 767 767 768 769 771 772 765 757 757 749 738 740 743 742 735 729 729 715 698 691 682 677 677 671 666 666 665 665 664 662 661 659 658 658
774 775 776 775 777 777 778 779 779 778 778 777 776 774 773 773 773 773 772 768 758 751 750 750 750 750 750 751 750 752 755 754 753 753 753 754 757 761 761 764 768 767 767 766 767 767 759 754 758 760 758 758 760 763 766 766 765 766 767 768 761 753 757 752 743 745 741 737 738 732 722 703 690 687 677 669 671 667 664 664 661 660 661 660 660 659 657 657
772 773 773 774 775 775 777 778 776 776 776 776 774 771 773 773 772 774 772 766 756 749 748 747 748 747 745 747 748 750 753 752 751 750 751 752 753 757 760 762 765 764 765 766 769 766 756 754 758 756 755 758 758 758 762 763 762 761 757 756 753 749 752 751 752 753 742 734 734 734 727 703 683 684 678 668 667 664 661 661 657 654 654 656 656 654 656 656
769 770 771 772 773 774 777 776 773 775 775 774 772 771 772 771 772 773 770 768 755 743 744 745 744 744 743 747 749 749 752 751 749 750 751 751 750 752 756 761 762 762 763 765 767 761 755 756 757 753 754 757 758 758 760 761 762 759 750 747 749 751 754 753 753 752 743 736 733 737 740 719 690 678 673 670 668 660 655 656 656 654 654 655 654 653 654 654
766 768 769 770 771 773 775 773 772 773 773 773 771 772 773 770 772 771 768 767 750 735 740 745 744 743 743 747 748 746 747 748 748 750 751 752 751 750 752 757 759 761 763 764 761 754 751 755 756 754 754 756 757 756 758 761 760 755 750 750 749 750 752 750 750 748 744 740 735 737 740 731 708 679 667 671 668 658 653 654 653 651 652 653 653 653 652 652
763 766 766 767 769 770 771 771 772 772 772 772 771 773 772 769 772 769 766 762 741 728 736 742 743 742 743 748 748 747 748 748 748 750 752 752 753 752 752 754 755 756 761 762 756 751 751 751 751 752 754 755 754 750 752 756 754 749 752 755 752 750 749 748 748 745 746 745 735 732 735 732 713 680 666 671 668 660 654 652 648 645 648 649 646 648 649 650
761 763 764 766 767 769 770 769 770 770 770 770 771 772 771 772 772 766 767 758 731 725 735 738 741 744 745 749 749 750 750 749 749 750 752 752 753 754 753 754 753 753 758 760 754 750 752 752 751 751 751 750 747 750 755 753 749 751 755 755 753 753 751 750 748 742 747 746 731 725 729 727 709 679 669 671 666 660 654 648 647 645 647 647 644 644 646 648
757 759 762 765 765 767 768 767 767 767 768 769 770 771 771 773 769 763 768 750 720 726 738 736 741 745 746 750 751 752 750 750 751 751 752 753 753 754 755 755 753 753 756 759 757 752 752 756 757 751 746 746 746 754 761 755 752 755 755 749 746 748 750 751 750 746 746 739 727 728 730 727 713 682 666 667 660 657 653 648 646 643 643 644 644 645 645 647
754 757 760 762 762 763 765 766 764 765 768 768 768 772 771 772 769 761 755 733 715 730 739 738 746 747 747 749 748 751 752 751 752 751 752 755 755 755 756 755 754 755 756 755 754 752 751 753 752 747 747 749 747 751 760 760 758 755 749 746 744 743 746 748 748 748 746 732 726 736 737 732 718 680 658 662 661 660 660 654 649 644 642 644 644 645 646 649
753 755 757 760 760 760 762 763 762 764 767 766 768 770 767 768 767 754 738 719 714 726 730 736 747 747 748 748 745 750 752 749 751 752 752 755 757 756 754 751 750 751 752 753 751 749 746 744 745 745 748 750 743 745 754 757 757 753 748 750 750 749 748 745 745 747 744 731 730 741 737 729 715 680 661 661 656 655 658 656 653 649 646 646 645 646 648 651
750 752 754 757 757 758 760 760 763 765 764 766 768 766 765 763 751 737 728 717 715 725 728 735 744 746 748 745 743 750 751 747 750 752 753 755 756 756 753 751 752 746 745 753 753 747 740 739 745 743 742 745 741 740 744 747 752 752 747 747 749 753 753 746 747 749 742 730 733 743 736 722 705 677 663 661 652 650 654 654 654 651 649 647 646 648 650 651
748 751 752 753 754 756 758 759 763 763 764 766 763 762 766 757 737 726 722 719 723 730 732 736 744 747 747 742 741 746 745 744 749 750 752 756 756 755 750 750 756 750 747 753 749 747 741 733 738 741 740 745 742 738 737 739 749 751 747 747 745 747 747 741 740 739 734 731 734 739 729 709 690 667 657 656 652 652 654 652 652 650 650 651 650 650 649 648
745 748 749 751 752 753 755 759 761 762 765 762 759 760 754 735 728 726 719 718 725 731 734 739 742 744 746 745 745 744 738 738 748 751 751 753 752 749 743 742 751 749 747 748 742 748 748 734 739 751 752 751 746 745 745 739 742 752 753 749 743 741 740 743 752 753 752 748 737 730 716 698 683 663 653 652 648 648 648 647 649 647 647 651 649 647 647 645
743 745 746 747 748 750 753 756 758 762 763 758 756 754 733 712 716 720 712 710 715 723 733 736 735 737 741 742 744 744 738 737 746 748 749 753 749 746 740 734 741 742 739 740 738 743 744 735 745 755 752 753 752 750 750 741 739 749 751 744 746 749 740 740 756 767 766 752 731 721 708 694 686 665 649 650 647 643 643 643 645 645 648 650 645 644 648 646
738 740 742 742 743 747 751 754 757 761 761 756 746 732 716 707 709 709 706 708 712 717 722 722 722 724 729 732 734 741 739 737 744 744 743 747 738 734 737 730 732 735 728 729 731 733 734 731 745 754 745 750 760 754 750 751 749 748 744 740 746 752 746 744 749 751 754 745 727 721 710 699 697 674 648 647 645 639 639 644 644 642 643 644 641 644 647 647
734 736 738 737 740 744 748 753 757 757 760 756 736 716 710 710 707 705 706 708 710 712 712 712 712 714 720 723 726 738 739 731 740 743 739 738 725 719 727 723 722 728 724 725 728 730 732 728 741 760 753 749 758 751 744 751 754 749 745 745 744 739 739 748 748 739 743 742 727 720 715 704 698 679 655 647 645 638 638 642 641 637 637 638 639 642 642 643
731 735 734 731 736 742 746 751 754 757 759 751 730 715 712 709 706 707 707 705 705 707 708 706 705 710 718 718 720 734 735 727 737 741 730 729 722 713 716 713 714 724 725 726 727 729 733 727 732 756 759 750 751 747 739 744 753 753 750 752 750 740 734 739 743 739 737 737 730 720 709 689 677 672 660 649 646 642 641 640 639 637 638 640 642 644 642 641
727 731 729 727 733 740 744 749 753 755 750 736 721 715 713 708 704 704 705 704 701 701 703 702 701 706 715 720 723 726 727 727 735 734 723 722 717 709 710 708 713 726 729 729 729 728 732 729 729 748 759 751 741 738 736 734 742 748 747 749 750 745 741 738 740 743 735 731 735 732 709 677 662 662 655 646 645 644 646 647 643 640 640 641 645 648 647 642
723 727 725 723 729 736 743 749 749 746 740 729 719 715 714 709 703 701 702 704 702 698 701 700 699 702 708 715 718 720 724 728 731 729 722 719 713 703 702 704 710 723 730 732 732 727 728 731 731 739 748 740 728 735 743 737 735 738 737 738 737 737 740 735 734 745 745 733 732 735 716 676 653 653 649 646 647 644 649 652 647 644 643 641 643 647 651 647
718 720 718 720 726 731 739 745 741 738 735 723 713 712 710 707 704 701 699 703 704 701 701 700 699 702 703 704 707 713 719 722 726 726 718 714 709 699 699 705 709 714 719 726 728 723 725 731 732 730 731 732 734 745 754 747 740 738 734 732 731 731 731 724 722 735 746 745 741 744 728 678 645 649 651 651 654 651 654 657 650 646 645 642 640 641 648 650
712 716 716 717 720 724 735 743 739 735 727 714 709 710 708 705 705 702 699 700 702 702 701 700 698 698 698 699 702 708 711 711 717 718 712 710 706 700 702 707 709 711 711 715 721 722 724 727 728 725 723 730 741 747 751 750 743 735 732 734 733 727 722 722 727 732 734 737 737 742 728 676 642 649 651 649 656 656 656 658 654 649 645 642 641 639 642 647
711 717 719 718 718 720 726 728 725 724 719 714 714 713 710 706 703 701 698 697 698 698 697 696 695 692 693 696 697 701 703 701 704 707 706 707 705 702 706 706 705 705 704 705 709 712 717 720 723 727 723 723 729 732 735 741 741 734 729 732 731 724 723 730 738 738 730 723 720 724 713 670 641 648 648 645 652 651 650 656 656 651 646 642 642 641 643 644
711 716 719 718 717 718 716 713 712 714 714 714 714 713 711 708 702 698 697 694 694 695 692 691 691 689 692 696 695 697 699 694 695 699 702 705 705 704 708 706 701 698 700 704 704 702 707 712 716 721 721 718 714 710 709 717 732 734 726 725 728 725 725 725 727 731 728 721 719 714 692 659 642 647 646 643 648 647 645 651 653 650 646 645 644 642 642 643
704 707 715 721 720 717 712 711 714 713 709 711 713 711 710 707 700 697 697 694 691 692 691 690 689 688 690 693 693 695 697 694 694 696 699 701 699 701 709 710 704 702 704 706 704 704 709 712 709 705 705 704 700 696 701 709 716 717 711 714 723 725 722 720 722 724 720 720 720 704 683 665 649 645 646 644 646 648 647 647 648 648 646 644 643 641 641 642
695 694 700 709 714 715 712 710 712 710 705 706 706 702 703 705 701 697 695 691 687 690 691 689 688 687 685 687 691 691 692 694 695 695 697 695 693 701 712 712 708 708 708 707 705 705 708 708 705 701 696 694 691 689 699 706 701 696 696 701 713 723 723 721 717 710 707 713 707 689 688 683 655 640 647 648 645 650 651 646 646 646 643 640 639 639 640 639
691 687 687 688 693 700 702 699 700 703 703 702 697 692 696 701 700 695 690 689 688 688 689 687 684 681 679 681 686 686 688 691 690 688 690 691 692 699 705 708 712 712 710 710 709 707 704 700 700 702 698 696 696 695 699 704 700 696 694 693 700 714 721 719 712 703 701 700 684 672 681 679 653 640 645 646 646 650 648 644 644 643 639 638 639 640 639 636
690 688 687 686 685 685 685 684 691 699 701 700 696 690 689 690 689 686 685 690 691 686 685 684 677 675 679 681 682 681 683 683 680 681 686 689 688 689 692 697 707 716 713 708 711 712 705 697 698 700 698 698 700 699 700 704 702 698 696 695 697 704 711 710 704 700 697 685 672 671 674 661 645 641 639 638 645 647 643 643 643 639 636 638 640 639 636 633
688 687 685 686 686 684 683 685 692 698 697 697 695 687 682 681 680 680 681 683 684 682 683 678 669 670 678 682 682 677 669 668 671 675 682 685 685 686 686 683 693 711 715 707 710 713 705 702 703 702 700 699 698 698 699 700 698 691 686 689 694 699 706 709 703 700 697 684 676 680 675 655 641 639 636 637 643 644 642 641 635 629 631 636 637 634 631 630
688 687 686 684 681 679 681 684 689 693 692 692 690 682 679 678 676 678 679 675 672 673 673 669 666 672 677 679 678 668 659 664 671 673 675 678 678 679 679 676 680 696 708 709 706 707 709 709 706 703 703 698 692 694 693 692 696 690 676 680 692 694 696 698 695 692 687 680 680 684 675 653 639 638 637 636 640 641 639 636 629 621 625 631 631 628 627 625
688 688 687 685 678 673 675 678 682 685 682 679 676 672 672 674 673 677 678 672 667 666 666 666 669 675 677 673 667 658 658 667 671 671 673 672 672 672 673 675 675 680 696 706 704 706 711 705 700 702 702 696 697 699 695 696 698 680 657 659 674 678 680 682 680 678 677 674 673 668 653 639 636 641 640 634 633 635 631 626 622 619 622 627 625 622 621 618